Flag for U.S.A. Weather for the Past 2 Weeks in Warminster Township, Pennsylvania, U.S.A.

Now
42 °F

Sunny.


Feels Like: 42 °F
Forecast: 24 / 43 °F
Wind: No wind

Location: Doylestown Airport

Current Time: Feb 7, 2016 at 12:34:12 PM

Latest Report: Feb 7, 2016 at 11:54 AM


Visibility: 10 mi

Pressure: 30.14 "Hg

Humidity: 41%

Dew point: 20 °F

Location of Warminster TownshipLocation

Historic Weather in Warminster Township — Graph

°F

Warminster Township Temperature Yesterday

Maximum temperature yesterday: 39 °F (at 2:54 PM)
Minimum temperature yesterday: 21 °F (at 7:54 AM)
Average temperature yesterday: 30 °F

High & Low Weather Summary for the Past Weeks

 TemperatureHumidityPressure
High55 °F (Jan 31, 2:54 PM)100% (Feb 1, 7:54 PM)30.45 "Hg (Feb 1, 7:54 PM)
Low14 °F (Jan 25, 5:54 AM)30% (Jan 31, 2:54 PM)29.51 "Hg (Jan 29, 4:54 AM)
Average34 °F69%30.03 "Hg
* Reported Jan 23 10:54 AM — Feb 7 10:54 AM, Warminster Township, Weather by CustomWeather, © 2016

Note: Actual official high and low records may vary slightly from our data, if they occured in-between our weather recording intervals... More about our weather records

Advertising

Warminster Township Weather History for the Previous 24 Hours

 ConditionsComfort  
Time TempWeatherWind HumidityBarometerVisibility
10:54 AM
Sun, Feb 7
40 °FSunny.3 mph49%30.15 "Hg10 mi
9:54 AM36 °FSunny.No wind62%30.19 "Hg10 mi
8:54 AM32 °FSunny.No wind75%30.19 "Hg10 mi
7:54 AM22 °FSunny.3 mph89%30.19 "Hg10 mi
6:54 AM21 °FClear.No wind92%30.20 "Hg10 mi
5:54 AM24 °FClear.6 mph88%30.21 "Hg10 mi
4:54 AM22 °FClear.No wind92%30.19 "Hg10 mi
3:54 AM22 °FClear.No wind92%30.22 "Hg10 mi
2:54 AM23 °FClear.No wind88%30.24 "Hg10 mi
1:54 AM24 °FClear.No wind88%30.24 "Hg10 mi
12:54 AM28 °FClear.No wind78%30.24 "Hg10 mi
11:54 PM
Sat, Feb 6
28 °FClear.No wind78%30.27 "Hg10 mi
10:54 PM30 °FClear.3 mph72%30.29 "Hg10 mi
9:54 PM31 °FClear.5 mph67%30.30 "Hg10 mi
8:54 PM32 °FClear.5 mph61%30.31 "Hg10 mi
7:54 PM32 °FClear.No wind59%30.31 "Hg10 mi
6:54 PM31 °FClear.3 mph61%30.31 "Hg10 mi
5:54 PM35 °FClear.3 mph50%30.30 "Hg10 mi
4:54 PM37 °FSunny.7 mph46%30.30 "Hg10 mi
3:54 PM39 °FSunny.6 mph39%30.29 "Hg10 mi
2:54 PM39 °FSunny.10 mph38%30.31 "Hg10 mi
1:54 PM38 °FSunny.8 mph37%30.32 "Hg10 mi
12:54 PM37 °FSunny.7 mph42%30.36 "Hg10 mi
Weather by CustomWeather, © 2016

See weather overviewHow to use our weather pages